User: anonymous   Login
Location: Columbia
(38.9520°N, 92.3340°W)
Time: 13:10:55
(UTC-06:00)
Language:

Iridium 15 - Orbit

View from above orbital plane
View from above orbital plane
View from above satellite
View from above satellite

Ground track
Ground track

The orbit data is extracted from the following two-line orbital elements,

1 24869U 97034A   14332.48368234  .00000744  00000-0  25841-3 0  1746
2 24869 086.3984 051.2747 0002227 111.2739 307.8370 14.34219199910373
Epoch (UTC): 28 November 2014 11:36:30
Eccentricity: 0.0002227
inclination: 86.3984°
perigee height: 776 km
apogee height: 779 km
right ascension of ascending node: 51.2747°
argument of perigee: 111.2739°
revolutions per day: 14.34219199
mean anomaly at epoch: 307.8370°
orbit number at epoch: 91037

The dashed part of the orbit path shows where the satellite is in the earth's shadow,  

DLR